METEOR 2-11 DEB, 60006

Orbit data source: Space-Track

METEOR 2-11 DEB, 60006 is space debris in LEO originally from a launch on Thu, 05 Jul 1984 UTC launched from the Plesetsk Missile And Space Complex (PKMTR). Debris objects in space refer to the collection of defunct objects orbiting the Earth. Examples of debris include non-operational satellites, rocket bodies, and fragments generated from explosions, collisions, or faulty payload assembly.

Loading next visibility...
Identifier
60006, 1984-072AB
Orbit
LEO
Country
Flag of CISCIS
Related business
Manufacturer
Unknown
Mission
Spacecraft
Bus & Motor
Unknown
Mass
Unknown
Launch date (UTC)
1984-07-05 (42 years ago)
Launch vehicle
Unknown
Launch site
Plesetsk Missile And Space Complex (PKMTR)
Object type
Payload
Rocket body
Debris
Shape & HBR
Unknown shape, 0.1 m
Radar Cross Section
Small (<0.1 m²)

Expand to show TLE details & history
Last TLE update: 3 months ago

TLE from 3 months ago
0 METEOR 2-11 DEB
1 60006U 84072AB  26034.95692704  .00003361  00000-0  23300-2 0  9993
2 60006  82.5230 117.0095 0015723 268.9867  90.9500 13.98623635412074
Epoch: 2026-02-03T22:57Z
TLE epoch observation values (Epoch: 2026-02-03T22:57:58.496Z)
Latitude
0.00001°
Longitude
-1.61465°
Altitude
901.694 km
Speed
7.401 km/s
True Right ascension
07h 48m 02s
True Declination
0° 00' 00"
Sunlit
Object was in full shadow at epoch
Visualization orbit readout
Latitude
Unknown
Longitude
Unknown
Altitude
Unknown
Speed
Unknown
Apparent Right ascension
Unknown
Apparent Declination
Unknown
Sunlit
N/A
Visualization observer readout
Local Sidereal Time
02:24:01
Azimuth
Unknown
Elevation
Unknown
Doppler factor
Unknown
Orbital elements
Apogee altitude
907.135 km
Perigee altitude
884.261 km
Semi-major axis
7,273.835 km
Eccentricity
0.00157
Inclination
82.523°
RAAN
117.0095°
Arg. of periapsis
268.9867°
True anomaly
91.13014°
Mean anomaly
90.95°
Eccentric anomaly
91.04007°
Mean motion
3.49863 °/min
Orbital period
102.9 mins
BSTAR
0.00233
Loading maneuver chart data...
Computing Atmospheric mass density...
Loading historical data...
Loading historical data...
Loading historical data...
Loading historical data...
Loading historical data...
Loading historical data...
Loading historical data...

Documentation

Showing up to 5 results
|